Weather Roundup
Issued by NWS

Home | Current Version | Previous Version | Graphics & Text | Print | Product List | Glossary Off
Versions: 1 2 3 4 5 6 7 8 9 10 11 12 13 14 15 16 17 18 19 20 21 22 23 24 25 26 27 28 29 30 31 32 33 34 35 36 37 38 39 40 41 42 43 44 45 46 47 48 49 50

000
NZUS93 KARX 020959
HRRWXR

CURRENT HOURLY OBSERVATIONS ACROSS
MUCH OF THE UPPER MISSISSIPPI VALLEY
NATIONAL WEATHER SERVICE LA CROSSE WI
500 AM CDT THU JUL 02 2015


...SOUTHEAST MINNESOTA...


CITY           SKY/WX    TMP DP  RH WIND       PRES   REMARKS
ROCHESTER      CLEAR     51  49  92 CALM      30.04R
ROCHESTER/MAYO FAIR      52  52 100 CALM      30.04R
WINONA         FOG       54  54 100 CALM      30.01F VSB 3/4
AUSTIN         CLEAR     48  46  93 CALM      30.04R
ALBERT LEA     CLEAR     48  46  93 CALM      30.03R FOG
DODGE CENTER   CLEAR     48  46  93 CALM      30.03R
PRESTON        CLEAR     50  49  96 CALM      30.03R FOG
OWATONNA       CLEAR     48  46  93 CALM      30.04R
FARIBAULT      CLEAR     48  46  93 CALM      30.05R
$$

...ELSEWHERE IN MINNESOTA...


CITY           SKY/WX    TMP DP  RH WIND       PRES   REMARKS
MINNEAPOLIS    PTCLDY    57  53  86 CALM      30.03R
INTNL FALLS    CLEAR     54  53  97 CALM      29.96R FOG
DULUTH         MOCLDY    58  52  80 SW5       30.01S
RED WING       CLEAR     52  50  93 CALM      30.01R
REDWOOD FALLS  CLEAR     53  52  96 CALM      30.02R
MANKATO        CLEAR     52  46  82 CALM      30.04R
WORTHINGTON    CLOUDY    54  50  87 CALM      30.02S
FAIRMONT       CLEAR     50  45  81 CALM      30.02R
$$

...SOUTHWEST WISCONSIN...


CITY           SKY/WX    TMP DP  RH WIND       PRES   REMARKS
LA CROSSE      CLEAR     52  51  97 SE3       30.02R
PRAIRIE DU CHI NOT AVBL
BOSCOBEL       FOG       52  51  97 CALM      30.04R VSB 1/4
LONE ROCK      FOG       49  48  97 CALM      30.04S VSB 3/4
PLATTEVILLE    NOT AVBL
FORT MC COY    NOT AVBL
CAMP DOUGLAS   CLEAR     46  46 100 SE1       30.04R
VIROQUA        NOT AVBL
WIS DELLS      NOT AVBL
$$

...ELSEWHERE IN WISCONSIN...


CITY           SKY/WX    TMP DP  RH WIND       PRES   REMARKS
MILWAUKEE      CLEAR     52  47  83 NE5       30.03R
MADISON        CLEAR     49  47  93 NW3       30.03S FOG
GREEN BAY      CLEAR     47  46  97 CALM      30.05R
EAU CLAIRE     FOG       50  49  96 NE3       30.01S VSB 3/4
BLACK RVR FLS  NOT AVBL
MEDFORD        NOT AVBL
WAUSAU         CLEAR     50  47  89 E5        30.05R
WIS RAPIDS     CLEAR     52  49  89 CALM      30.06R FOG
MARSHFIELD     FOG       54  51  90 SE7       30.05R VSB 1
RICE LAKE      CLEAR     51  49  95 CALM      30.04S
$$

...NORTHEAST IOWA...


CITY           SKY/WX    TMP DP  RH WIND       PRES   REMARKS
DECORAH        NOT AVBL
MASON CITY     CLEAR     46  46 100 NE3       30.04R FOG
CHARLES CITY   NOT AVBL
OELWEIN        NOT AVBL
$$

...ELSEWHERE IN IOWA...


CITY           SKY/WX    TMP DP  RH WIND       PRES   REMARKS
DES MOINES     PTCLDY    60  54  80 NE9       29.96R
IOWA CITY      PTCLDY    59  55  87 E5        29.97S
FORT DODGE     CLOUDY    54  48  82 CALM      30.02R
$$

...NORTHERN ILLINOIS...


CITY           SKY/WX    TMP DP  RH WIND       PRES   REMARKS
CHICAGO-OHARE  CLOUDY    55  52  89 NE10      29.97F
CHICAGO-MIDWAY PTCLDY    56  53  90 N10       29.96F
MOLINE         PTCLDY    57  52  83 NE8       29.96S
ROCKFORD       CLEAR     51  47  86 NE7       30.01F
PEORIA         PTCLDY    60  53  77 NE13      29.91F
$$

NOTE: "FAIR" INDICATES FEW OR NO CLOUDS BELOW 12,000 FEET WITH NO
SIGNIFICANT WEATHER AND/OR OBSTRUCTIONS TO VISIBILITY. WIND
SPEEDS ARE IN MILES-PER-HOUR.



USA.gov is the U.S. government's official web portal to all federal, state and local government web resources and services.